Regional Weather Roundup
Issued by NWS

Home | Current Version | Previous Version | Graphics & Text | Print | Product List | Glossary On
Versions: 1 2 3 4 5 6 7 8 9 10 11 12 13 14 15 16 17 18 19 20 21 22 23 24 25 26 27 28 29 30 31 32 33 34 35 36 37 38 39 40 41 42 43 44 45 46 47 48 49 50
000
ASUS45 KABQ 261410
RWRNM
NEW MEXICO REGIONAL WEATHER ROUNDUP
NATIONAL WEATHER SERVICE ALBUQUERQUE NM
800 AM MDT MON JUN 26 2017

NOTE: "FAIR" MEANS FEW OR NO CLOUDS BELOW 12,000 FEET AGL WITH NO
       SIGNIFICANT WEATHER OR OBSTRUCTIONS TO VISION.

      THIS PRODUCT IS RELEASED AS TWO VERSIONS.  ONE VERSION NEAR
      THE TOP OF THE HOUR CONTAINING PRELIMINARY DATA FROM ALBUQUERQUE
      AND OTHER STATIONS.  A FINAL VERSION WITH ADDITIONAL DATA IS
      ISSUED ABOUT 10 MINUTES AFTER THE HOUR.

NMZ501-503-504-510>518-261500-
NORTHWEST PLATEAU/NORTHCENTRAL MOUNTAINS

CITY           SKY/WX    TMP DP  RH WIND       PRES   REMARKS
FARMINGTON     FAIR      68  47  46 E10       30.26S
LOS ALAMOS     FAIR      58  50  75 S7        30.45R
SANTA FE       FAIR      62  53  72 SE9       30.39R
TAOS           FAIR      57  45  62 CALM      30.46R
ANGEL FIRE     CLOUDY    48  47  96 CALM      30.52S FOG

$$
NMZ402-403-502-505>509-261500-
WESTCENTRAL MOUNTAINS/SOUTHWEST MOUNTAINS

CITY           SKY/WX    TMP DP  RH WIND       PRES   REMARKS
GALLUP         FAIR      66  46  48 W5        30.34R
GRANTS         FAIR      64  53  66 SE12      30.37S
SILVER CITY    FAIR      68  57  66 N5        30.29R

$$
NMZ407-409-411-412-261500-
SOUTHERN DESERTS

CITY           SKY/WX    TMP DP  RH WIND       PRES   REMARKS
DEMING         FAIR      71  60  68 SE13      30.23R
LAS CRUCES     FAIR      71  60  66 SE5       30.25R
HOLLOMAN AFB   FAIR      67  62  84 CALM      30.26R
ALAMOGORDO     FAIR      70  59  68 SE3       30.26S
T OR C         FAIR      70  58  65 NE6       30.26R

$$
NMZ519>523-261500-
CENTRAL VALLEYS/CENTRAL HIGHLANDS

CITY           SKY/WX    TMP DP  RH WIND       PRES   REMARKS
ALBUQUERQUE    FAIR      68  53  58 N6        30.32R
DOUBLE EAGLE   MOSUNNY   64  54  68 NE9       30.35R
MORIARTY ARPT  FAIR      58  57  98 CALM      30.41S
CLINES CORNERS CLOUDY    55  52  89 SE13      30.44R
BELEN          FAIR      68  54  60 E5        30.31R
SOCORRO        FAIR      68  56  66 CALM      30.28S

$$
NMZ524>526-539-540-261500-
SOUTHCENTRAL MOUNTAINS

CITY           SKY/WX    TMP DP  RH WIND       PRES   REMARKS
RUIDOSO        FAIR      55  54  94 CALM      30.45R

$$
NMZ527>531-261500-
NORTHEAST HIGHLANDS/NORTHEAST PLAINS

CITY           SKY/WX    TMP DP  RH WIND       PRES   REMARKS
LAS VEGAS      CLOUDY    55  53  93 S8        30.43R
RATON          CLOUDY    55  53  93 CALM      30.40S
CLAYTON        PTSUNNY   60  58  92 SW15      30.32S

$$
NMZ532>537-261500-
EASTCENTRAL PLAINS

CITY           SKY/WX    TMP DP  RH WIND       PRES   REMARKS
SANTA ROSA     PTSUNNY   63  56  78 SE8       30.34S
TUCUMCARI      FAIR      66  59  78 W5        30.30R
CANNON AFB     FAIR      63  63 100 SE6       30.33R
CLOVIS AIRPORT FAIR      64  57  78 S7        30.33R

$$
NMZ028-029-538-261500-
SOUTHEAST PLAINS

CITY           SKY/WX    TMP DP  RH WIND       PRES   REMARKS
ROSWELL        FAIR      66  60  81 N6        30.28R
ARTESIA        FAIR      68  59  73 SE6       30.28S
CARLSBAD       CLOUDY    67  64  90 W3        30.25R FOG
HOBBS          PTSUNNY   63  63 100 N8        30.29R


$$




USA.gov is the U.S. government's official web portal to all federal, state and local government web resources and services.